Location: Marion Hill
(40.7303°N, 80.2959°W)
Time: 08:32:16
(UTC+00:00)

Cosmos 1408 - Pass Details

Date: 29 October 2020
Orbit: 470 x 492 km, 82.6° (Epoch: 28 November)

Event Time Altitude Azimuth Distance (km) Brightness Sun altitude
Rises 22:56:58 0° 9° (N) 2,558 6.0 -7.5°
Reaches altitude 10° 22:59:36 10° 29° (NNE) 1,677 4.9 -8.0°
Maximum altitude 23:02:10 18° 74° (ENE) 1,266 4.0 -8.5°
Drops below altitude 10° 23:04:43 10° 118° (ESE) 1,675 4.8 -9.0°
Sets 23:07:20 0° 138° (SE) 2,555 5.9 -9.4°
